Wind_Speed
21 23 23 23 23 24 24 23 21 20 19 25 29 26 23 21 20 23 25 23 21 19 18 18 17 17 18 19 19 20 20 19 20 20 19 19 19 20 19 17 16 16 17 17 16 15 16 16 16 16 15 14 13 13 13 13 13 13 13 13 13 13 12 11 9 9 10 10 10 9 8 7 6 6 5 5 5 5 5 6 6 6 6 7 7
23 24 24 24 24 24 24 22 21 21 21 20 28 29 24 22 22 23 24 23 22 20 19 19 19 19 20 20 20 21 21 20 21 20 19 19 19 19 18 17 17 17 16 16 15 15 15 15 15 15 14 13 13 13 13 13 13 13 13 13 13 13 12 11 10 10 10 10 9 8 7 7 7 7 6 6 5 5 5 5 4 5 5 5 5
22 23 23 22 22 21 21 21 20 19 22 17 20 27 26 24 23 23 22 22 22 22 21 20 20 21 21 21 22 23 22 20 19 18 18 19 19 19 17 17 17 17 17 16 16 15 15 15 14 13 13 13 13 13 13 13 13 13 14 14 14 13 13 12 12 11 10 9 8 7 7 7 8 7 6 4 3 2 2 2 2 3 3 3 3
21 22 22 21 21 19 19 20 19 16 17 17 12 18 23 22 21 22 23 22 22 22 21 21 22 22 22 24 25 25 23 21 19 17 18 20 20 19 17 17 17 17 17 17 16 16 15 14 13 12 13 13 13 13 13 13 13 13 13 14 14 14 14 13 12 11 10 9 8 7 7 7 6 5 3 3 2 2 2 2 2 2 2 2 2
21 22 22 21 21 21 19 19 18 16 15 15 13 12 14 17 18 22 24 24 24 22 21 22 23 23 23 25 26 25 24 22 20 18 20 21 20 18 17 18 18 17 16 16 16 15 14 14 13 13 13 13 13 13 13 12 12 12 12 13 14 15 14 13 11 11 10 9 8 7 6 6 5 5 5 4 3 3 3 3 3 3 4 4 4
21 22 21 21 21 21 21 19 18 16 15 14 13 13 13 16 18 21 23 24 24 23 22 23 24 24 24 24 26 26 25 23 21 19 20 20 19 18 17 17 17 16 16 16 15 14 14 13 13 13 13 13 14 14 13 11 11 11 12 13 14 15 14 13 11 10 10 9 8 7 6 6 7 7 6 5 4 4 4 4 4 5 5 6 6
21 22 23 22 22 22 21 20 18 16 15 14 15 16 17 18 20 20 21 22 23 23 23 24 25 25 23 24 26 26 25 24 21 20 20 20 19 18 18 17 16 16 16 16 15 15 14 13 13 13 13 14 15 14 12 11 11 12 12 13 14 14 13 12 11 11 10 10 9 8 7 8 8 8 7 6 6 6 6 6 6 7 7 8 9
20 22 24 25 24 23 22 21 19 17 15 15 16 18 20 21 22 22 21 22 23 23 23 24 24 24 23 25 28 27 24 23 21 20 20 20 19 19 18 17 16 16 16 15 15 15 14 14 13 13 14 15 15 14 13 12 12 12 12 13 13 13 12 12 12 12 12 12 10 9 9 9 10 9 8 7 7 7 8 7 8 8 9 9 10
19 21 23 25 26 25 23 21 20 18 17 16 16 18 21 23 24 23 22 23 23 23 24 23 24 24 24 26 29 28 24 22 21 21 21 20 20 19 18 17 16 15 15 15 15 14 14 14 14 14 14 14 15 15 14 13 13 12 12 13 13 12 12 13 13 14 14 14 13 12 11 11 10 9 7 7 7 8 9 9 9 9 10 11 12
19 20 22 24 26 26 24 23 21 19 19 17 17 19 22 24 25 25 25 25 24 24 24 24 25 26 26 28 30 29 25 23 22 21 21 20 20 19 17 16 15 15 15 15 14 14 14 14 14 13 14 14 15 15 14 12 12 12 12 13 13 13 13 14 14 14 15 15 14 13 12 11 10 9 8 8 9 10 11 11 12 12 13 14 15
19 20 22 24 25 26 25 24 23 20 20 19 18 19 21 23 26 27 26 26 25 24 24 24 26 29 29 29 31 29 25 23 22 21 21 20 19 18 16 16 15 15 15 15 15 14 14 14 13 13 14 14 15 15 14 13 12 12 13 13 13 13 14 14 14 14 14 14 13 13 12 12 11 11 11 11 12 13 13 14 15 15 16 16 17
19 21 22 24 25 26 25 26 24 22 20 19 17 18 21 23 25 26 25 24 25 25 23 23 27 29 29 29 29 28 25 23 21 20 21 20 19 17 17 16 16 15 15 15 15 15 15 14 13 13 13 14 15 15 15 14 14 14 14 13 13 13 13 13 13 13 13 13 13 13 13 13 14 14 14 15 15 15 16 17 17 18 19 19 20
19 20 22 24 25 25 25 26 25 22 20 18 14 14 18 20 22 23 24 25 26 24 22 23 26 28 27 28 28 27 26 23 21 21 22 20 18 18 17 17 17 16 16 15 14 14 14 14 13 13 14 15 17 17 15 15 15 15 15 14 14 13 13 13 13 13 13 13 14 14 15 15 15 16 16 17 18 18 19 20 20 21 21 22 22
18 19 22 24 25 24 25 24 22 20 18 16 12 12 14 18 20 22 24 25 25 25 24 26 28 28 28 29 28 28 27 24 22 23 23 20 19 18 18 18 17 17 17 17 15 14 14 14 14 14 14 17 19 17 15 15 16 16 16 15 15 14 14 14 14 15 15 16 16 16 17 17 18 18 19 20 20 21 22 23 23 23 23 24 25
18 18 20 23 23 23 23 22 19 16 15 14 13 12 13 15 19 21 23 25 25 25 26 27 29 31 30 29 29 29 28 25 24 24 22 20 19 19 18 18 18 17 18 18 17 16 16 16 16 15 16 20 21 17 15 16 16 16 17 17 16 16 16 16 16 16 16 17 18 18 19 20 20 21 21 22 23 24 25 25 25 26 26 27 27
17 17 18 21 22 21 22 22 19 16 14 13 12 14 15 15 18 21 23 25 25 25 28 29 30 32 31 28 28 28 27 26 25 24 21 20 20 19 18 18 17 17 19 19 18 18 17 17 16 15 18 23 22 18 16 16 16 15 16 15 15 15 15 16 16 16 17 19 21 22 23 23 24 24 24 25 25 26 27 28 27 27 27 28 29
16 17 17 18 19 20 22 23 21 18 16 15 11 12 15 15 16 17 20 26 28 28 31 32 31 32 30 27 27 27 27 27 26 23 20 19 19 18 17 17 17 18 19 19 19 19 18 18 18 17 19 20 17 15 15 15 14 14 14 14 15 15 16 16 17 18 20 22 23 25 26 27 27 28 28 28 27 27 28 29 28 28 27 27 29
16 16 16 16 17 18 21 23 22 19 18 16 13 10 11 11 13 13 15 23 29 29 31 31 29 29 28 27 28 29 30 29 26 23 21 21 20 19 17 17 18 19 19 18 19 20 20 21 20 17 16 17 14 13 14 14 14 14 15 15 16 16 17 17 19 21 24 26 27 29 31 32 33 33 32 31 30 29 28 26 25 26 25 25 27
17 17 17 16 16 17 19 21 22 21 17 14 12 10 8 8 12 11 12 18 24 25 27 28 28 26 25 27 31 32 32 31 26 23 23 21 20 19 17 17 18 18 18 17 17 20 22 22 21 18 16 16 15 13 14 15 15 16 17 17 17 17 18 19 20 22 23 23 23 23 24 25 26 27 27 27 27 26 24 22 22 23 24 25 26
18 18 18 17 16 16 19 20 21 20 15 12 12 12 9 5 9 10 10 15 22 24 24 25 28 27 24 25 29 29 30 30 25 23 25 23 19 17 16 17 17 16 17 17 17 21 21 19 20 21 20 18 18 17 17 17 18 18 19 19 18 18 19 19 19 18 17 16 16 16 15 15 15 16 17 18 20 21 21 22 22 23 25 26 27
17 18 18 17 16 15 17 19 20 19 14 11 10 12 11 6 4 7 7 10 18 24 24 24 27 27 23 23 26 26 26 26 23 22 25 25 22 19 18 19 18 16 18 19 19 21 21 18 19 22 21 20 20 20 20 19 19 19 20 20 19 18 18 18 17 15 15 15 16 16 16 15 15 15 16 17 18 20 21 22 23 23 23 24 24
15 15 16 16 15 14 13 14 16 15 13 11 12 12 11 8 2 4 4 5 11 20 23 21 22 25 23 22 25 25 23 23 22 23 23 24 24 22 21 19 18 18 20 19 20 23 22 20 21 22 21 21 22 22 22 21 19 19 20 20 19 18 17 16 15 15 15 16 17 17 17 17 18 18 18 19 19 20 20 20 20 20 20 20 21
16 15 14 12 11 11 10 11 12 10 9 11 13 13 12 9 5 1 3 5 7 15 22 21 20 22 23 21 23 23 21 20 22 23 24 24 24 23 22 21 20 20 19 16 16 19 19 18 20 23 24 25 25 24 23 21 20 20 20 19 17 16 15 14 14 15 16 17 17 18 18 18 18 19 18 18 18 18 18 18 18 18 18 19 20
17 15 12 11 9 8 8 8 9 9 9 9 11 11 11 9 5 1 3 5 6 11 18 20 18 19 20 20 22 24 22 20 21 21 21 21 21 21 22 23 23 23 21 20 19 20 20 21 23 25 26 26 25 23 22 21 22 21 19 17 15 14 13 13 14 15 16 17 17 18 17 17 17 17 16 16 16 15 15 16 16 17 19 20 21
14 12 11 12 11 9 9 9 9 9 8 6 7 8 8 7 5 2 3 6 8 12 18 19 17 18 19 21 23 26 25 24 24 22 19 17 18 19 21 23 25 24 25 25 24 24 24 26 27 27 27 25 25 24 24 24 22 19 16 14 13 12 12 13 15 16 16 17 17 16 16 15 14 14 13 13 13 14 15 16 17 19 20 22 24
11 9 9 11 12 11 12 12 11 11 9 5 4 3 4 4 4 5 6 7 9 14 18 19 18 19 20 20 22 26 28 27 26 24 21 19 19 21 23 25 26 26 26 27 28 28 30 31 32 32 30 28 27 26 24 22 18 15 13 12 11 12 13 14 15 15 15 15 14 14 13 12 12 12 12 13 14 15 16 17 19 20 22 24 26
10 8 7 8 10 11 12 12 11 10 9 8 6 5 4 3 5 6 8 10 11 14 17 20 20 20 19 18 20 24 26 26 26 26 26 25 26 27 28 28 28 28 28 28 28 29 29 29 28 27 26 24 22 20 18 15 13 11 10 11 12 13 14 14 14 14 13 13 12 11 11 11 11 12 13 14 15 16 17 19 20 22 24 26 28
11 10 8 6 8 9 10 11 10 9 8 8 8 8 6 6 8 8 9 9 11 14 18 19 18 17 17 18 19 21 22 23 23 24 26 27 29 31 31 30 29 27 25 22 20 20 20 19 19 18 17 16 15 13 11 10 8 9 10 11 13 13 13 13 12 12 11 10 10 9 10 11 12 13 13 14 16 17 19 20 22 24 26 27 28
13 13 11 9 8 8 8 9 9 9 9 9 8 8 7 8 11 12 11 9 9 12 15 16 16 16 17 19 20 21 21 21 22 23 23 24 25 25 25 24 22 20 18 16 14 14 15 14 14 13 12 10 9 8 7 7 8 9 11 12 12 12 12 11 10 10 9 9 9 9 10 11 12 13 14 15 17 18 20 22 23 25 26 26 27
15 15 14 13 11 10 9 8 8 8 9 9 9 9 9 10 11 12 12 11 10 10 12 14 15 16 16 17 17 17 17 17 18 19 19 19 19 19 19 19 18 17 15 14 12 11 10 9 8 7 7 6 6 7 8 8 9 10 10 11 11 11 10 10 9 8 8 9 9 10 10 11 12 13 14 16 18 19 21 22 23 24 24 24 24
14 14 13 13 13 11 10 10 10 9 9 8 9 10 10 10 11 11 12 12 12 11 12 13 14 13 13 13 13 12 12 12 12 13 13 13 14 15 17 17 17 15 13 11 10 8 7 6 6 6 6 7 7 8 8 9 9 10 10 10 10 10 9 9 8 8 9 9 9 9 10 10 12 13 15 17 18 20 21 22 22 22 22 22 22
13 12 11 11 10 10 10 10 10 10 9 9 8 9 9 10 10 11 11 12 12 13 13 13 13 12 12 12 12 12 12 12 12 12 12 13 13 14 14 14 13 12 11 10 8 7 6 5 5 6 6 7 7 8 8 9 9 10 10 10 10 9 9 9 9 9 9 9 8 8 9 10 12 13 15 17 18 19 20 20 20 20 20 20 20
12 12 11 10 9 9 9 9 8 8 8 8 8 7 7 8 9 10 10 11 12 13 13 13 11 10 10 10 10 10 10 10 11 11 11 12 12 12 11 11 10 9 9 7 6 4 4 5 5 6 7 7 8 8 9 9 10 10 10 10 10 9 9 9 9 9 8 7 7 7 8 10 12 14 16 17 17 18 18 18 18 18 18 18 18
12 12 12 12 11 11 10 9 8 8 8 8 8 7 6 6 7 7 8 9 9 11 12 12 10 8 6 5 5 5 5 5 5 6 6 6 6 6 6 6 6 5 4 3 3 3 5 6 7 8 8 9 9 9 10 10 10 10 9 9 9 9 9 9 8 7 7 6 6 7 9 11 13 14 15 15 16 16 16 16 16 16 16 16 17
13 13 13 13 13 12 12 11 10 9 8 8 9 9 9 8 7 7 6 6 6 6 6 7 7 7 5 3 2 2 2 2 3 3 3 2 2 2 2 2 3 3 3 3 5 6 8 8 9 9 10 10 10 10 10 9 9 9 8 9 9 9 9 8 7 6 6 6 6 8 10 11 12 13 13 14 14 14 14 14 14 15 15 15 16
13 13 13 13 13 13 13 12 12 11 10 9 9 9 10 10 9 8 8 7 7 6 5 4 3 3 3 3 3 3 2 2 2 2 2 2 2 2 3 3 4 5 6 7 8 9 9 10 10 10 10 10 10 9 9 9 9 9 9 9 9 9 8 7 6 6 5 5 7 8 9 10 10 11 11 11 12 12 12 12 13 13 14 15 16
14 14 13 13 14 14 14 14 13 12 12 11 11 10 10 10 10 9 9 8 8 7 6 5 4 3 2 2 3 4 5 5 4 4 4 3 3 3 4 4 5 6 7 8 8 9 9 10 10 10 10 10 9 9 9 9 9 9 9 9 8 8 7 6 6 4 4 5 6 7 8 8 9 9 9 10 10 10 11 12 13 13 15 16 16
15 15 15 15 14 14 14 14 14 13 13 12 12 11 11 10 10 10 9 9 8 7 6 6 5 4 4 3 3 4 4 5 5 5 5 5 5 5 5 6 6 6 7 7 8 8 9 9 10 10 10 9 9 9 9 10 10 9 9 8 8 7 7 6 4 3 3 4 5 6 6 7 7 8 8 9 9 10 11 12 13 14 15 16 16
16 16 16 16 15 15 14 14 14 14 13 13 12 11 11 11 10 10 9 9 9 8 8 7 6 5 5 5 5 5 5 5 5 5 4 4 5 5 6 7 7 8 8 8 9 9 10 10 10 10 10 10 10 10 10 10 9 9 8 8 8 8 6 5 3 2 2 3 4 5 5 6 6 7 7 8 9 10 11 12 13 14 15 15 16
15 15 16 16 16 15 15 14 14 14 13 13 12 12 12 11 11 10 10 9 9 9 9 8 7 7 6 6 6 6 6 7 6 6 6 6 5 6 7 8 8 9 9 10 10 11 11 11 11 10 10 10 10 10 10 9 9 9 9 8 8 7 5 3 1 1 1 2 3 4 4 5 6 6 7 7 8 9 10 11 12 13 14 15 15
14 14 14 15 15 15 15 15 15 15 14 14 14 13 13 13 12 12 11 10 10 9 8 8 8 8 8 8 8 8 8 8 8 8 8 8 8 8 8 8 9 10 10 11 11 11 11 11 11 10 10 10 10 9 9 9 9 9 9 8 7 5 3 2 1 1 1 1 2 3 4 5 5 6 7 8 9 10 10 11 12 12 13 14 14
13 13 13 14 14 14 15 15 15 15 15 15 15 14 14 14 14 13 13 12 12 11 10 8 8 8 8 9 9 9 9 10 10 9 9 9 10 10 9 9 10 10 11 11 12 12 12 12 11 11 10 10 10 9 9 9 9 9 8 7 5 4 3 3 2 1 0 1 2 2 3 4 5 6 7 9 9 10 10 11 11 12 12 13 13
13 13 13 14 13 13 13 14 14 15 15 15 15 15 14 14 14 14 14 13 13 13 12 10 10 9 8 10 11 10 9 9 10 10 9 9 10 11 10 10 11 11 12 12 12 13 13 12 12 11 11 10 10 10 10 10 9 8 7 6 5 4 4 3 2 1 1 1 1 2 3 4 5 7 8 9 9 10 10 11 12 12 13 13 14
13 13 14 14 14 14 14 14 13 13 13 14 14 14 14 14 14 14 14 14 13 13 12 12 11 10 10 11 12 11 10 9 9 10 9 9 9 11 11 11 11 11 12 13 13 13 13 13 12 11 11 11 10 10 10 9 8 7 6 6 5 5 4 3 2 2 1 1 1 2 3 4 6 7 8 8 9 10 10 11 12 13 13 14 14
14 14 14 14 15 15 15 15 14 14 13 13 12 12 12 13 14 14 14 14 13 13 13 12 11 11 11 12 12 12 11 10 9 9 9 9 9 10 11 11 11 11 12 13 13 13 13 13 12 12 12 11 11 10 9 8 8 7 7 6 6 5 4 3 3 2 1 1 1 2 3 5 6 7 8 8 9 10 11 12 12 13 14 15 15
13 13 13 14 14 14 14 15 15 14 14 13 13 11 11 11 12 13 13 13 13 13 13 13 12 12 12 12 12 11 10 10 9 9 9 9 9 9 11 11 11 11 12 14 14 14 14 14 14 13 12 12 11 10 9 9 8 8 8 7 6 5 5 4 3 2 2 1 2 3 4 5 6 7 8 8 9 10 11 12 12 13 14 15 15
12 12 12 13 13 13 14 14 14 14 14 14 13 13 12 11 10 11 11 11 11 12 12 12 13 13 12 12 12 10 9 8 8 9 10 9 9 9 11 11 11 11 12 14 15 15 15 15 15 14 13 12 11 11 10 10 9 9 8 8 7 6 5 4 4 3 2 2 2 3 3 4 5 6 7 8 9 10 11 12 13 14 14 15 15
11 11 12 12 12 12 13 13 13 14 14 13 13 13 14 13 12 10 10 10 10 11 11 12 12 12 12 12 12 11 9 8 8 9 10 10 10 9 11 12 12 12 12 14 15 15 16 16 15 14 14 13 12 11 11 10 10 9 9 8 7 7 6 5 4 3 2 2 2 3 3 4 5 6 7 8 9 10 11 12 13 14 14 15 15
10 10 11 11 11 12 12 12 13 13 13 13 13 12 13 13 13 13 12 11 11 11 12 12 12 12 13 13 13 13 12 11 10 9 9 10 10 10 10 11 13 13 13 13 14 15 16 16 16 15 14 14 13 12 12 11 11 10 10 9 8 7 6 5 5 4 3 3 2 2 3 3 4 5 6 7 8 9 10 12 13 14 14 14 14
10 10 10 10 11 11 11 12 13 13 13 13 13 13 12 12 13 14 14 14 14 14 14 13 13 12 12 13 14 15 15 15 14 12 10 9 10 10 10 10 12 13 13 13 14 14 15 16 16 16 15 15 14 13 13 12 12 11 10 10 9 8 7 6 5 5 4 3 3 2 2 2 3 4 5 6 7 8 10 11 12 13 14 14 14
10 10 10 10 10 10 11 11 12 13 13 13 14 14 14 13 13 14 14 15 16 17 17 16 14 11 10 11 13 15 16 16 16 15 13 11 10 11 11 11 11 12 13 14 14 15 16 16 17 17 16 15 15 14 13 13 12 12 11 11 10 9 8 7 6 5 4 4 3 2 1 1 2 3 4 6 7 8 9 10 11 12 13 13 13
Wind_Direction
294 295 298 301 306 310 311 316 321 318 292 258 241 236 236 235 233 232 237 246 252 257 260 257 250 239 229 223 214 209 209 211 214 216 219 223 223 222 219 211 204 208 214 215 215 219 220 221 221 222 226 230 231 233 235 236 237 239 240 241 244 247 246 238 227 221 226 233 240 244 248 254 262 266 271 275 279 280 277 273 269 266 264 265 265
299 299 301 304 306 307 308 310 312 320 317 274 237 229 231 228 226 231 237 240 243 251 258 254 246 236 227 221 213 208 209 210 211 212 215 221 223 221 218 211 207 210 216 217 216 218 220 220 220 221 226 230 230 232 232 232 234 235 237 239 240 241 239 232 224 222 227 235 243 249 255 261 266 271 274 276 276 275 275 272 270 270 268 266 266
308 308 309 310 310 307 303 303 304 311 322 302 241 227 230 227 227 235 241 240 241 248 254 250 244 237 228 220 211 207 207 206 204 208 215 220 221 220 218 214 212 211 214 217 217 217 219 220 219 219 223 228 230 231 231 230 231 232 233 235 233 231 231 228 224 224 228 236 245 251 257 263 269 272 268 262 260 252 250 260 262 264 266 264 262
316 317 317 315 313 309 301 298 299 299 307 311 280 242 233 225 227 238 242 241 243 247 249 245 242 239 232 222 211 203 201 198 197 208 221 222 219 216 215 215 214 213 214 216 217 216 218 221 221 219 222 227 229 231 231 229 229 230 231 231 225 222 225 227 226 224 226 233 243 251 259 264 265 256 221 187 184 179 173 199 227 236 247 255 262
321 321 322 319 315 311 303 297 297 294 289 293 294 272 245 232 235 242 243 240 241 243 244 241 238 236 233 226 212 200 197 195 197 212 224 223 218 213 211 212 213 212 215 216 217 216 217 219 220 222 224 226 227 227 227 228 229 228 227 226 222 219 222 225 224 225 227 231 242 251 257 255 233 196 174 168 175 186 200 223 239 252 260 263 268
323 325 325 324 320 316 311 304 298 294 287 278 271 264 257 251 249 249 245 241 241 242 242 240 234 228 227 224 212 201 197 196 200 216 224 223 220 216 213 213 212 211 213 215 217 216 215 216 218 220 221 220 220 223 224 224 225 223 221 222 222 218 219 220 221 224 229 233 241 245 242 233 213 191 184 190 203 220 235 246 257 266 271 275 280
324 327 328 327 325 321 317 314 308 301 290 274 257 247 246 249 249 247 244 241 242 245 246 245 238 226 218 215 209 202 198 198 206 219 222 221 221 218 216 215 213 213 213 214 216 214 214 215 216 216 215 214 216 219 220 220 219 218 216 217 220 216 211 214 219 223 229 234 236 233 226 223 217 206 201 208 225 244 256 268 279 285 288 291 294
326 328 329 328 327 326 322 318 315 308 295 276 258 245 241 244 245 243 242 243 242 243 246 247 240 228 217 211 207 203 201 203 210 219 221 221 221 219 217 214 212 213 213 213 215 215 214 214 213 212 212 212 214 214 215 215 212 211 210 211 217 216 209 213 222 227 232 235 231 224 220 220 221 220 222 229 245 262 275 285 288 289 292 294 294
327 329 330 329 328 327 324 320 315 311 302 286 265 248 240 241 243 241 239 239 237 237 240 241 235 227 219 213 206 202 204 208 212 217 220 220 219 218 217 214 210 209 209 211 214 214 212 211 208 208 210 212 212 212 213 212 208 205 207 208 210 212 213 217 224 230 234 233 228 223 222 223 225 230 239 249 260 272 279 281 279 277 280 283 284
326 329 331 331 328 326 323 319 316 312 305 295 277 256 242 238 240 238 230 225 227 231 233 233 231 225 218 211 205 202 204 210 213 216 217 216 215 214 213 210 206 205 207 209 210 209 207 206 205 206 209 210 212 211 208 208 208 206 208 210 208 208 212 216 220 225 227 225 224 224 226 230 236 243 250 258 265 270 273 273 274 274 275 277 278
322 328 332 332 329 326 322 318 316 313 307 298 284 265 249 239 238 237 229 221 221 226 226 226 228 224 215 205 201 202 206 211 214 216 215 212 209 206 205 205 203 203 205 205 205 204 202 203 205 207 210 211 212 211 204 202 205 204 205 209 211 210 211 212 213 216 217 219 222 228 232 238 246 251 255 261 267 269 271 272 273 274 274 274 275
320 326 332 334 330 327 323 320 319 318 313 304 288 266 252 243 240 240 236 228 223 224 224 223 224 222 213 201 199 203 207 210 214 215 211 207 202 198 198 199 199 201 203 201 201 203 202 204 207 210 211 210 209 207 204 202 204 204 204 208 211 212 213 212 214 216 218 221 226 231 238 244 251 257 262 268 271 272 274 274 275 276 276 276 277
318 325 330 333 331 327 324 323 323 324 321 314 297 268 253 247 241 238 233 228 226 225 223 222 222 219 209 200 201 206 205 208 216 215 207 200 197 195 196 196 196 198 199 198 200 203 205 208 211 215 214 207 201 201 203 205 208 209 210 213 215 217 220 222 226 231 233 235 236 239 245 250 256 262 267 270 272 273 275 276 277 279 280 280 281
315 323 329 332 332 328 325 326 324 322 323 319 301 273 257 250 243 235 227 223 224 224 219 217 218 217 208 201 204 205 202 206 216 212 201 195 194 195 196 195 195 195 197 200 202 204 208 212 214 218 216 204 198 198 201 205 211 214 215 218 221 224 228 233 237 242 244 246 248 251 255 259 262 265 268 271 275 277 279 281 282 284 285 285 285
315 323 329 332 332 328 327 329 324 315 316 313 296 277 260 250 241 234 227 223 224 221 215 213 214 213 208 203 203 203 200 205 212 205 195 192 194 196 196 196 196 196 199 203 205 206 211 214 214 216 212 201 195 197 204 207 212 216 218 223 229 234 239 243 246 250 254 258 262 264 266 268 270 272 275 278 281 283 283 284 284 285 287 288 288
317 324 331 333 332 328 327 332 333 325 320 316 297 273 260 249 237 232 229 226 222 216 212 213 213 209 205 200 200 201 202 205 206 198 191 190 193 194 194 196 197 197 200 204 208 210 212 214 216 214 206 198 192 192 202 209 213 219 226 233 240 245 250 254 259 264 269 271 273 274 274 274 275 276 279 281 283 284 284 283 283 283 286 288 288
320 326 331 332 330 327 327 332 339 339 334 334 320 279 261 246 233 239 240 228 220 214 212 212 208 202 199 197 197 201 206 206 198 190 188 191 193 191 191 195 197 199 202 207 210 213 211 208 208 205 200 198 194 193 202 213 220 228 238 246 252 256 260 266 271 275 277 276 275 274 274 274 274 276 278 281 284 286 287 284 281 280 283 287 289
325 326 330 332 329 327 328 332 340 344 341 342 341 314 282 247 238 266 265 232 217 212 209 207 201 197 196 194 195 200 206 203 193 186 188 192 192 190 190 195 200 201 205 210 212 214 208 201 200 201 201 206 211 208 211 220 227 233 241 246 251 257 263 269 275 278 278 277 276 275 273 273 273 274 275 277 279 283 287 286 283 282 284 288 292
326 325 329 333 330 327 328 332 340 346 346 349 355 347 319 259 242 264 263 229 214 208 206 203 199 198 198 195 195 198 200 198 191 187 191 195 194 192 192 199 205 205 207 211 210 205 199 197 202 208 211 217 222 219 219 224 229 234 240 245 250 256 263 270 277 279 280 281 283 284 282 280 278 276 274 273 273 277 282 286 288 289 290 292 295
328 328 329 332 333 330 326 329 340 349 353 360 10 9 355 294 230 225 234 228 218 210 205 202 198 196 196 195 195 196 197 196 192 191 195 195 193 193 197 206 213 213 208 205 203 203 205 210 214 215 215 219 222 223 225 230 235 241 247 251 254 259 266 275 280 282 283 287 291 295 295 294 291 286 281 277 276 279 284 289 292 294 294 295 296
331 331 329 329 332 334 333 336 345 354 359 1 2 4 2 351 230 226 245 236 218 209 205 201 196 191 188 189 192 195 197 198 198 200 202 200 197 196 199 208 219 223 216 212 213 215 217 217 214 211 213 218 223 227 232 237 243 251 256 258 258 264 272 279 282 283 286 290 293 295 296 298 298 295 292 289 288 289 291 292 293 294 295 296 297
328 330 330 331 332 335 344 354 357 358 359 351 342 345 357 6 337 259 241 196 200 205 202 195 189 186 187 188 188 193 203 208 210 212 213 211 210 208 204 211 225 228 222 217 216 214 213 211 209 213 220 223 224 228 232 237 248 260 264 262 263 270 277 281 284 288 291 294 294 294 296 297 296 295 294 293 292 293 293 294 295 296 298 299 300
327 328 328 332 335 338 351 10 9 355 344 336 334 337 343 353 3 341 178 166 190 198 190 180 176 184 192 191 184 189 202 208 208 214 217 218 219 218 212 214 223 226 223 222 219 218 223 225 220 219 223 224 224 226 230 238 255 267 267 263 266 273 278 282 287 290 291 292 292 293 294 294 294 293 293 293 294 295 296 297 298 299 301 302 303
333 333 331 334 339 341 354 12 9 352 333 323 326 332 333 335 346 49 146 159 176 182 177 173 176 186 193 193 191 196 202 200 197 201 207 210 213 217 219 221 227 232 236 242 244 241 242 239 231 226 225 227 230 234 240 252 264 269 264 261 266 273 277 283 287 288 289 290 291 292 292 292 291 292 292 293 294 295 297 298 301 303 304 305 305
339 339 338 340 342 345 352 1 2 352 338 317 313 324 331 329 322 296 209 187 181 176 175 177 185 192 191 190 195 200 204 205 203 203 209 219 223 227 231 233 236 240 243 246 245 242 239 237 237 237 237 240 245 252 258 263 266 264 259 260 267 274 279 284 286 287 289 290 291 290 289 289 289 290 291 293 296 299 302 305 307 307 307 306 307
344 344 345 347 348 350 353 356 357 351 340 315 290 305 322 315 293 274 257 233 208 193 189 190 194 196 191 189 194 199 201 205 210 215 226 235 233 228 228 230 234 238 239 241 241 239 239 242 243 245 247 251 256 259 260 259 256 253 256 264 273 279 283 286 288 289 291 291 289 289 288 288 290 292 296 300 303 306 307 308 308 308 308 310 312
348 350 348 346 345 346 348 350 352 349 334 311 284 267 268 287 288 276 264 250 232 217 209 203 199 198 196 197 201 205 208 215 223 231 237 236 232 231 232 235 237 237 238 241 243 243 246 248 249 249 249 249 251 251 248 246 247 253 264 274 279 282 285 288 289 290 289 288 287 287 289 292 296 300 302 305 306 307 308 309 311 313 314 315 314
347 348 344 337 332 334 338 340 342 341 330 309 286 271 276 305 313 304 287 267 245 229 221 215 212 215 218 219 222 224 226 230 235 239 240 239 238 240 241 242 242 241 242 246 247 245 244 242 241 241 240 238 238 239 239 243 256 270 277 280 283 285 286 287 287 285 284 283 285 288 292 296 299 301 303 306 309 312 314 316 317 317 316 314 312
345 346 342 334 322 318 322 326 329 330 325 312 295 283 291 310 314 305 293 276 252 235 229 229 235 240 238 236 238 240 240 239 238 238 239 239 239 240 240 239 237 234 232 230 225 223 223 222 224 229 231 234 239 246 256 268 278 283 284 284 284 284 283 282 281 280 279 281 285 289 292 295 298 304 309 313 316 318 319 319 317 315 313 311 310
346 345 340 335 325 317 313 311 312 316 316 310 302 297 299 304 304 297 286 271 256 243 236 235 237 239 238 237 238 239 238 239 238 236 234 233 231 228 224 219 213 208 208 207 206 208 212 219 232 242 248 256 268 276 281 283 282 282 282 281 279 279 278 276 276 276 278 282 285 288 293 299 306 312 316 318 319 319 317 316 314 312 311 310 309
354 352 347 341 334 327 321 316 314 314 313 311 307 303 300 297 294 288 279 265 251 239 231 227 226 226 227 227 226 225 224 223 221 218 215 214 214 212 212 212 211 209 208 208 209 214 223 239 257 268 275 281 284 283 282 279 277 276 276 275 274 272 270 270 270 273 277 281 285 290 298 307 313 317 319 319 318 317 315 313 312 311 311 311 312
2 1 357 352 351 349 344 337 330 322 317 316 315 309 303 300 297 292 282 269 253 238 224 217 214 214 218 221 224 225 226 224 222 219 215 213 213 214 217 220 222 222 220 217 215 217 227 244 261 272 280 280 278 275 271 268 267 265 263 262 262 260 261 264 268 272 276 280 287 296 306 313 317 319 320 319 317 315 314 314 314 314 315 316 317
13 10 7 6 11 12 9 4 359 350 340 333 328 319 309 303 301 297 290 280 268 256 242 230 219 213 216 223 229 234 236 236 236 236 233 229 227 227 226 225 223 221 219 216 215 220 236 252 263 267 267 263 259 257 255 253 252 251 250 251 251 253 259 263 266 270 274 279 289 301 311 317 320 321 320 318 317 316 317 317 318 319 320 322 324
25 25 22 20 19 19 19 21 21 21 17 10 4 359 350 336 323 315 304 292 281 270 261 254 248 240 233 232 239 248 256 257 256 253 248 242 238 237 238 236 231 227 222 218 229 244 250 251 251 249 247 246 245 244 244 245 245 245 246 248 251 255 260 262 264 268 272 281 296 310 319 322 323 322 321 320 320 321 322 323 325 326 328 330 331
31 32 32 30 28 26 25 24 23 26 29 29 29 30 27 22 14 1 345 333 322 306 288 278 272 267 266 266 265 273 286 289 287 283 279 276 267 256 252 251 247 246 242 236 235 236 236 236 236 236 236 237 238 239 241 243 244 247 250 253 255 257 258 259 261 265 273 290 310 320 325 326 325 324 323 324 325 327 329 331 333 335 336 335 334
32 31 31 31 31 30 29 26 24 22 21 21 23 27 30 31 30 24 17 13 11 10 7 356 329 294 273 262 253 245 237 236 242 246 247 249 243 227 216 217 223 226 226 225 226 227 228 228 229 230 231 233 234 237 240 243 246 249 251 252 253 253 252 253 256 263 281 307 322 327 328 328 327 327 327 329 333 336 339 342 344 344 343 341 340
33 32 31 31 31 30 28 26 24 21 18 16 14 15 16 19 22 23 22 21 19 20 22 22 18 5 325 281 264 256 249 242 238 235 231 228 225 219 210 210 215 220 222 223 225 226 227 228 229 230 232 234 236 238 241 243 244 245 246 246 245 244 243 243 248 264 295 319 327 328 329 329 329 331 334 339 343 347 350 352 353 352 350 350 351
34 34 33 32 32 30 29 27 24 21 18 15 14 13 12 9 9 11 13 12 10 9 8 8 7 2 350 333 311 288 275 266 258 253 246 239 237 236 233 232 234 235 235 234 232 230 230 231 234 236 237 238 238 238 239 240 241 240 240 238 234 230 230 233 243 270 310 326 329 330 330 331 335 338 344 350 354 356 357 357 356 355 355 355 356
32 33 34 33 32 31 31 30 27 24 21 17 15 15 14 10 7 6 4 1 357 354 352 350 347 341 331 324 317 309 301 292 282 273 262 250 240 236 234 236 240 243 244 244 241 238 238 238 239 239 237 236 235 234 234 234 234 232 229 225 222 221 222 227 242 285 321 327 329 331 333 337 343 348 353 356 358 358 358 357 357 357 356 355 355
31 32 32 32 31 32 32 32 31 29 26 23 20 19 18 15 13 11 9 3 356 350 346 341 335 326 317 307 302 298 296 292 285 280 274 266 255 248 244 243 241 240 241 242 241 241 241 242 240 236 231 227 226 226 225 224 223 220 217 215 214 215 213 212 223 290 321 326 333 339 343 345 350 354 357 357 358 359 360 360 359 358 355 352 350
29 31 31 30 30 30 30 31 31 31 30 26 23 20 18 15 13 11 10 9 6 3 358 348 335 323 313 304 297 292 290 287 282 276 271 267 261 255 250 247 244 241 239 240 242 243 242 239 233 228 224 222 221 220 218 216 213 210 209 207 205 199 187 175 177 205 283 331 347 352 354 354 356 359 360 1 3 5 4 3 360 357 353 350 347
29 29 30 31 31 31 29 28 28 29 29 27 24 20 16 13 11 9 7 7 6 6 4 357 345 331 318 308 301 295 287 282 279 274 268 262 257 252 246 243 241 240 239 239 239 238 234 229 224 220 218 217 216 214 211 209 207 205 203 199 188 172 163 166 175 181 184 12 10 5 4 6 8 8 9 10 10 9 8 5 2 357 353 350 348
34 30 29 30 30 29 28 28 27 27 26 25 24 23 20 16 13 10 8 6 4 2 360 354 347 339 325 314 310 306 297 286 281 280 277 267 256 248 242 238 236 236 236 235 231 227 222 217 214 213 212 210 210 209 207 205 203 201 196 186 174 164 166 173 174 162 120 51 25 16 15 18 20 21 20 19 16 13 8 4 0 356 352 349 347
32 28 26 25 25 25 25 25 25 25 24 24 24 24 23 22 20 16 13 9 5 2 359 352 347 342 333 323 321 321 315 300 287 282 282 277 263 251 243 238 235 235 235 231 224 218 213 209 208 208 207 205 204 204 204 202 199 194 186 180 175 172 174 176 173 159 133 86 42 30 29 32 34 33 30 26 20 14 9 3 358 355 351 347 345
21 21 20 19 19 19 20 20 20 20 20 21 23 24 24 23 21 19 17 14 11 8 4 358 351 344 335 328 328 329 325 316 301 286 280 276 265 253 246 241 236 233 232 229 221 213 208 206 205 204 203 203 202 202 201 201 197 190 186 184 183 181 181 181 180 171 153 116 69 47 41 42 42 40 36 30 23 17 12 7 2 358 354 351 349
12 12 12 13 13 13 13 13 13 13 12 12 14 16 18 19 17 16 17 19 18 15 12 7 1 353 344 339 338 335 331 324 313 297 286 279 269 255 248 245 240 233 227 224 220 212 207 205 204 202 201 202 202 202 201 200 196 193 191 190 188 188 190 190 190 183 163 123 85 65 55 51 49 45 39 33 28 22 17 11 5 1 358 355 353
7 5 6 7 7 6 6 6 5 6 5 4 2 2 4 7 9 9 13 18 19 17 16 13 8 2 355 349 345 342 339 335 325 312 301 293 283 267 254 249 246 238 229 222 218 213 209 206 204 203 203 203 204 204 204 202 200 198 197 195 195 196 197 197 197 191 169 135 103 82 69 60 55 50 43 36 30 24 18 13 8 3 0 358 357
1 0 0 1 360 359 360 359 359 359 358 357 356 353 352 352 355 356 360 6 9 7 7 10 10 8 3 358 353 350 349 347 337 325 317 313 305 289 269 257 252 246 237 228 221 216 212 209 206 205 206 207 208 209 209 207 206 205 205 204 203 204 203 202 199 192 176 152 123 98 82 69 59 50 42 34 27 21 17 14 9 5 3 1 0
354 353 354 354 354 353 353 352 352 353 352 351 351 347 343 342 342 341 343 348 354 354 354 357 1 2 3 3 1 357 354 349 344 336 326 320 316 307 289 270 260 253 245 237 229 222 217 213 210 209 210 210 211 212 212 212 211 212 212 211 210 208 207 205 201 195 186 169 144 118 95 75 59 46 36 28 20 16 15 12 9 6 4 3 2
347 347 348 348 348 347 347 346 346 346 345 345 345 342 338 334 330 328 328 331 334 336 339 344 349 353 355 352 349 349 348 347 344 340 333 320 311 307 300 286 270 260 253 245 237 230 224 219 216 215 214 214 214 215 215 215 216 216 216 217 215 211 209 207 202 199 194 183 163 138 106 78 55 38 28 19 12 10 11 10 7 5 5 4 4
342 341 341 343 343 342 341 340 340 340 340 340 339 338 336 332 327 323 321 321 322 324 326 328 333 339 339 333 328 328 330 332 334 334 332 324 310 302 299 294 282 267 258 251 244 238 231 227 223 220 217 217 217 217 218 219 219 219 220 219 217 214 211 208 206 204 201 195 186 172 131 77 39 23 17 10 3 3 7 7 5 4 4 5 5
Height
3117 3116 3115 3114 3114 3113 3111 3111 3109 3108 3108 3108 3110 3112 3113 3113 3114 3115 3115 3116 3117 3117 3118 3119 3119 3120 3120 3121 3122 3124 3125 3127 3129 3131 3133 3135 3137 3137 3137 3138 3138 3139 3140 3142 3143 3144 3145 3146 3148 3149 3150 3151 3153 3154 3155 3156 3156 3157 3158 3159 3160 3160 3161 3162 3162 3163 3163 3164 3164 3164 3165 3165 3165 3166 3166 3166 3166 3166 3167 3167 3167 3167 3167 3167 3167
3115 3114 3113 3112 3112 3110 3108 3107 3106 3105 3104 3103 3105 3107 3109 3110 3111 3112 3113 3114 3114 3115 3116 3116 3117 3117 3118 3119 3120 3121 3123 3124 3126 3128 3130 3133 3135 3136 3136 3136 3137 3138 3139 3140 3141 3142 3143 3145 3146 3148 3149 3150 3151 3152 3153 3154 3155 3156 3157 3157 3158 3159 3159 3160 3161 3161 3162 3162 3163 3163 3163 3164 3164 3164 3164 3165 3165 3165 3165 3166 3166 3166 3166 3166 3166
3113 3112 3111 3110 3109 3108 3106 3104 3104 3103 3102 3101 3102 3104 3106 3108 3109 3111 3112 3112 3112 3113 3113 3113 3114 3115 3115 3116 3117 3119 3120 3122 3125 3127 3129 3131 3132 3133 3134 3134 3135 3137 3138 3138 3140 3141 3142 3143 3145 3146 3147 3148 3149 3150 3151 3152 3153 3154 3155 3156 3156 3157 3158 3158 3159 3160 3160 3161 3161 3162 3162 3162 3163 3163 3163 3164 3164 3164 3164 3165 3165 3165 3165 3165 3165
3111 3110 3109 3107 3107 3106 3104 3102 3101 3102 3101 3101 3101 3102 3104 3105 3107 3108 3109 3110 3110 3110 3110 3110 3111 3112 3113 3114 3115 3116 3118 3120 3123 3125 3127 3129 3130 3131 3132 3133 3133 3135 3136 3137 3138 3139 3140 3142 3143 3144 3145 3146 3147 3148 3149 3150 3151 3152 3153 3154 3155 3155 3156 3157 3158 3158 3159 3160 3160 3161 3161 3161 3161 3162 3162 3163 3163 3163 3163 3163 3164 3164 3163 3164 3164
3109 3108 3107 3105 3104 3103 3102 3100 3099 3099 3100 3100 3100 3101 3102 3103 3104 3105 3106 3106 3106 3107 3107 3107 3108 3109 3110 3111 3113 3114 3116 3118 3121 3123 3125 3127 3127 3128 3129 3131 3131 3133 3134 3135 3136 3138 3139 3140 3142 3143 3143 3144 3145 3146 3147 3149 3150 3151 3152 3153 3154 3154 3154 3155 3156 3157 3158 3159 3159 3160 3160 3160 3160 3161 3161 3162 3162 3162 3162 3162 3162 3162 3162 3162 3163
3107 3106 3105 3104 3102 3101 3099 3098 3098 3097 3098 3098 3098 3099 3100 3101 3101 3102 3103 3103 3103 3104 3104 3104 3105 3106 3107 3109 3111 3112 3113 3116 3119 3121 3123 3124 3124 3125 3127 3128 3130 3131 3132 3133 3134 3136 3137 3139 3140 3141 3142 3142 3143 3144 3146 3147 3148 3150 3150 3151 3152 3153 3153 3154 3155 3156 3156 3157 3158 3159 3159 3159 3160 3160 3160 3161 3161 3161 3161 3161 3161 3161 3161 3161 3162
3105 3104 3103 3102 3101 3099 3097 3096 3096 3095 3095 3095 3096 3096 3096 3096 3097 3098 3099 3100 3100 3101 3101 3102 3103 3104 3104 3106 3108 3109 3111 3114 3116 3118 3120 3122 3123 3124 3126 3127 3128 3129 3130 3131 3133 3134 3135 3137 3138 3139 3140 3141 3142 3143 3144 3145 3147 3148 3149 3150 3150 3151 3152 3153 3154 3155 3155 3156 3157 3158 3158 3158 3159 3159 3159 3160 3160 3160 3160 3160 3160 3160 3160 3160 3161
3104 3103 3101 3100 3099 3097 3096 3094 3093 3093 3092 3092 3092 3092 3092 3092 3092 3093 3095 3096 3097 3097 3098 3100 3101 3103 3103 3104 3106 3108 3110 3112 3114 3116 3118 3120 3121 3123 3124 3125 3126 3127 3129 3130 3131 3132 3134 3135 3136 3137 3138 3139 3140 3141 3142 3143 3145 3146 3148 3149 3149 3150 3151 3152 3153 3154 3154 3155 3156 3156 3157 3157 3157 3158 3158 3158 3158 3159 3159 3159 3159 3159 3159 3159 3159
3103 3102 3100 3098 3096 3095 3094 3092 3091 3090 3089 3088 3088 3088 3088 3088 3088 3089 3090 3092 3093 3094 3095 3096 3098 3100 3101 3102 3103 3106 3108 3110 3112 3114 3116 3118 3119 3121 3122 3123 3124 3125 3127 3128 3129 3131 3132 3134 3135 3136 3137 3138 3138 3139 3140 3142 3143 3145 3146 3147 3148 3149 3150 3151 3152 3153 3153 3154 3154 3155 3155 3155 3156 3156 3156 3157 3157 3157 3157 3158 3158 3158 3158 3157 3157
3102 3101 3099 3097 3095 3093 3091 3090 3089 3088 3087 3086 3085 3084 3084 3083 3084 3085 3086 3088 3089 3091 3092 3093 3095 3096 3097 3099 3101 3104 3106 3108 3110 3112 3114 3116 3117 3118 3120 3121 3122 3123 3125 3126 3128 3129 3131 3132 3133 3134 3135 3136 3137 3138 3139 3141 3142 3143 3144 3146 3147 3148 3149 3150 3151 3151 3152 3152 3153 3153 3154 3154 3154 3154 3155 3155 3155 3156 3156 3156 3156 3156 3156 3156 3155
3100 3099 3098 3096 3093 3091 3089 3087 3086 3085 3084 3083 3082 3081 3081 3081 3081 3082 3084 3085 3087 3087 3089 3090 3092 3093 3093 3095 3098 3102 3104 3106 3108 3110 3112 3114 3115 3116 3118 3119 3120 3122 3123 3125 3126 3128 3129 3130 3132 3133 3134 3135 3136 3137 3138 3140 3141 3142 3143 3144 3145 3146 3147 3148 3149 3150 3150 3151 3151 3152 3152 3152 3152 3153 3153 3153 3153 3154 3154 3154 3154 3154 3154 3153 3153
3098 3097 3096 3094 3092 3089 3087 3085 3083 3082 3081 3079 3078 3077 3078 3078 3079 3080 3083 3084 3084 3084 3086 3088 3089 3091 3092 3093 3096 3100 3102 3104 3106 3108 3110 3111 3113 3114 3115 3117 3119 3120 3122 3123 3125 3126 3128 3129 3130 3131 3132 3133 3135 3136 3137 3138 3139 3140 3142 3143 3144 3145 3146 3147 3147 3148 3149 3149 3150 3150 3150 3151 3151 3151 3151 3151 3151 3152 3152 3152 3152 3151 3151 3151 3150
3097 3095 3094 3092 3090 3088 3086 3083 3081 3079 3078 3077 3075 3074 3074 3075 3076 3077 3079 3080 3081 3082 3085 3087 3087 3089 3091 3093 3095 3098 3100 3102 3104 3106 3108 3109 3111 3112 3114 3115 3117 3118 3120 3122 3123 3125 3126 3127 3128 3129 3130 3132 3133 3134 3135 3137 3138 3139 3140 3141 3142 3143 3144 3145 3146 3146 3147 3147 3148 3148 3148 3148 3149 3149 3149 3149 3149 3149 3149 3149 3149 3148 3148 3147 3147
3095 3094 3092 3090 3089 3087 3085 3082 3079 3077 3076 3074 3073 3072 3072 3073 3073 3074 3075 3077 3079 3080 3082 3084 3086 3087 3089 3091 3094 3096 3098 3100 3103 3104 3106 3107 3108 3110 3112 3113 3115 3117 3118 3120 3122 3123 3124 3125 3126 3127 3129 3130 3131 3133 3134 3135 3137 3138 3139 3140 3141 3141 3142 3143 3143 3144 3144 3145 3145 3145 3146 3146 3146 3146 3146 3146 3146 3146 3146 3146 3146 3145 3144 3144 3143
3094 3093 3091 3089 3087 3085 3083 3081 3079 3076 3074 3073 3071 3071 3071 3071 3071 3072 3073 3074 3076 3078 3079 3082 3084 3085 3087 3090 3092 3094 3096 3099 3101 3103 3104 3105 3107 3109 3110 3112 3114 3115 3117 3119 3120 3121 3122 3124 3125 3125 3127 3128 3129 3131 3132 3134 3135 3136 3137 3138 3139 3140 3140 3141 3141 3141 3142 3142 3142 3142 3143 3143 3143 3143 3143 3143 3143 3143 3143 3143 3143 3142 3141 3140 3139
3092 3091 3090 3088 3086 3084 3082 3080 3078 3076 3074 3071 3070 3069 3069 3069 3069 3070 3071 3072 3074 3075 3077 3079 3081 3082 3085 3088 3091 3093 3096 3098 3100 3101 3102 3104 3106 3108 3109 3111 3112 3114 3116 3117 3119 3120 3121 3122 3123 3124 3125 3126 3127 3129 3130 3132 3133 3134 3135 3136 3137 3137 3138 3138 3138 3139 3139 3139 3139 3139 3139 3139 3139 3139 3139 3139 3139 3139 3139 3139 3139 3139 3138 3137 3136
3091 3089 3088 3086 3085 3083 3081 3078 3077 3075 3073 3070 3068 3067 3067 3068 3068 3069 3069 3070 3071 3073 3074 3076 3078 3080 3084 3086 3089 3092 3095 3097 3098 3099 3101 3102 3105 3106 3108 3109 3111 3113 3114 3115 3117 3118 3119 3121 3122 3123 3124 3126 3127 3128 3129 3130 3131 3133 3134 3134 3135 3135 3135 3136 3136 3136 3137 3136 3136 3136 3136 3135 3135 3135 3136 3136 3136 3136 3135 3135 3135 3135 3135 3133 3131
3089 3088 3086 3085 3083 3082 3080 3077 3075 3073 3071 3070 3068 3066 3066 3067 3067 3067 3068 3068 3070 3072 3073 3074 3077 3080 3082 3085 3087 3090 3093 3095 3096 3097 3099 3101 3103 3105 3107 3109 3110 3111 3112 3113 3115 3116 3118 3119 3120 3121 3122 3124 3125 3126 3127 3128 3130 3131 3131 3132 3132 3133 3133 3133 3134 3134 3133 3133 3132 3132 3131 3131 3131 3131 3132 3132 3132 3132 3132 3131 3131 3131 3130 3130 3128
3087 3086 3085 3084 3082 3080 3079 3077 3074 3072 3071 3069 3068 3066 3065 3065 3065 3066 3067 3068 3070 3072 3072 3073 3077 3079 3081 3084 3086 3088 3091 3093 3094 3096 3098 3100 3102 3104 3106 3108 3109 3110 3111 3112 3113 3115 3116 3117 3118 3120 3121 3122 3123 3124 3125 3126 3127 3128 3129 3129 3130 3130 3131 3131 3131 3130 3130 3129 3129 3128 3127 3127 3127 3127 3127 3128 3128 3129 3128 3128 3127 3127 3126 3125 3124
3085 3084 3083 3082 3081 3079 3078 3076 3074 3072 3071 3069 3068 3067 3065 3064 3064 3065 3067 3068 3069 3070 3072 3074 3076 3079 3081 3085 3087 3088 3090 3092 3094 3095 3097 3099 3101 3103 3105 3106 3107 3109 3110 3111 3112 3113 3114 3115 3117 3118 3119 3120 3121 3122 3123 3124 3125 3125 3126 3127 3127 3127 3127 3127 3127 3127 3127 3126 3126 3126 3125 3125 3124 3124 3124 3125 3125 3125 3125 3124 3123 3123 3122 3121 3121
3084 3083 3081 3081 3080 3078 3077 3075 3073 3072 3071 3070 3069 3068 3067 3065 3065 3066 3066 3066 3067 3069 3071 3073 3076 3079 3082 3085 3086 3087 3090 3092 3093 3095 3096 3098 3100 3102 3104 3105 3107 3108 3109 3109 3110 3111 3112 3113 3115 3116 3117 3118 3119 3119 3120 3121 3122 3123 3123 3124 3124 3124 3124 3124 3124 3124 3124 3124 3123 3123 3122 3122 3122 3122 3121 3121 3121 3121 3121 3120 3120 3119 3119 3118 3117
3083 3082 3081 3080 3079 3077 3076 3075 3074 3072 3071 3070 3070 3069 3068 3067 3067 3067 3067 3067 3067 3069 3071 3073 3076 3079 3082 3083 3084 3087 3090 3091 3093 3094 3096 3097 3099 3100 3102 3104 3105 3107 3108 3108 3108 3109 3109 3111 3112 3113 3114 3115 3116 3116 3117 3118 3119 3119 3120 3120 3120 3121 3121 3121 3121 3121 3121 3120 3120 3120 3119 3119 3119 3119 3118 3118 3118 3118 3117 3117 3116 3116 3116 3115 3114
3082 3081 3080 3079 3078 3077 3076 3075 3075 3074 3072 3071 3071 3070 3070 3069 3068 3068 3068 3068 3069 3070 3071 3074 3076 3079 3081 3082 3084 3087 3089 3089 3091 3093 3094 3095 3097 3099 3101 3102 3103 3105 3106 3106 3107 3108 3108 3109 3110 3110 3111 3111 3112 3113 3113 3114 3115 3116 3116 3117 3117 3117 3118 3118 3118 3117 3117 3117 3117 3117 3117 3116 3116 3116 3115 3115 3115 3115 3114 3114 3113 3113 3113 3112 3112
3081 3081 3080 3079 3078 3077 3076 3075 3075 3075 3073 3072 3072 3072 3071 3071 3070 3070 3070 3070 3071 3071 3073 3075 3077 3078 3080 3081 3084 3087 3087 3088 3090 3091 3092 3094 3096 3097 3099 3100 3101 3102 3104 3104 3105 3106 3107 3107 3107 3107 3107 3108 3109 3109 3110 3111 3112 3113 3113 3114 3114 3114 3114 3114 3114 3114 3114 3115 3115 3114 3114 3114 3113 3113 3113 3112 3112 3112 3112 3111 3111 3110 3110 3109 3108
3081 3080 3079 3079 3078 3077 3076 3075 3075 3075 3074 3073 3073 3072 3072 3072 3072 3071 3071 3071 3072 3073 3074 3075 3076 3077 3079 3081 3082 3084 3086 3087 3089 3090 3091 3093 3094 3096 3097 3098 3099 3100 3101 3102 3103 3103 3104 3104 3104 3104 3105 3105 3106 3106 3107 3108 3109 3110 3110 3111 3111 3111 3111 3111 3111 3111 3112 3112 3112 3111 3111 3111 3111 3110 3110 3110 3110 3109 3109 3109 3108 3107 3107 3105 3104
3081 3081 3080 3079 3078 3077 3076 3075 3075 3075 3074 3074 3073 3073 3073 3073 3073 3073 3073 3073 3073 3074 3074 3074 3075 3076 3077 3079 3080 3082 3084 3085 3087 3089 3090 3091 3092 3093 3093 3094 3095 3097 3098 3098 3099 3100 3100 3100 3101 3101 3102 3102 3102 3103 3104 3105 3106 3107 3107 3107 3108 3108 3108 3109 3109 3109 3109 3109 3109 3109 3108 3108 3108 3108 3108 3107 3107 3107 3106 3106 3105 3104 3103 3101 3100
3080 3080 3080 3079 3079 3078 3077 3076 3076 3075 3075 3074 3074 3073 3073 3073 3074 3074 3074 3074 3074 3075 3075 3075 3075 3076 3077 3078 3079 3080 3082 3083 3084 3086 3087 3088 3088 3089 3090 3091 3092 3093 3094 3095 3096 3096 3096 3097 3097 3098 3098 3099 3100 3100 3101 3102 3103 3104 3104 3104 3105 3105 3105 3106 3106 3106 3106 3106 3106 3106 3106 3105 3105 3105 3105 3105 3105 3104 3104 3103 3101 3100 3098 3097 3096
3079 3079 3079 3079 3079 3078 3078 3077 3076 3076 3075 3074 3074 3073 3073 3073 3073 3073 3073 3073 3074 3074 3074 3075 3075 3076 3077 3077 3078 3079 3080 3081 3082 3083 3083 3084 3086 3087 3088 3089 3090 3090 3091 3092 3092 3093 3093 3094 3095 3095 3096 3096 3097 3098 3098 3099 3100 3101 3101 3101 3102 3102 3102 3102 3103 3103 3103 3103 3103 3103 3103 3103 3103 3103 3103 3103 3102 3101 3100 3098 3097 3096 3095 3094 3093
3078 3078 3078 3078 3078 3078 3077 3077 3076 3075 3075 3075 3074 3074 3073 3073 3073 3073 3073 3073 3073 3073 3073 3074 3075 3075 3076 3076 3076 3077 3078 3078 3079 3079 3080 3081 3082 3084 3085 3086 3086 3087 3087 3088 3088 3089 3090 3091 3092 3092 3093 3094 3094 3095 3096 3096 3097 3098 3098 3099 3099 3099 3099 3100 3100 3100 3100 3100 3101 3101 3101 3101 3101 3101 3100 3099 3098 3097 3096 3095 3094 3093 3092 3092 3090
3077 3077 3077 3076 3076 3076 3076 3076 3076 3075 3075 3074 3074 3074 3074 3073 3073 3073 3073 3072 3072 3072 3072 3073 3073 3073 3074 3074 3075 3075 3076 3076 3076 3077 3077 3078 3079 3080 3081 3082 3083 3083 3084 3085 3086 3086 3087 3088 3089 3090 3090 3091 3092 3093 3094 3094 3095 3096 3096 3096 3097 3097 3097 3097 3097 3098 3098 3098 3098 3099 3099 3099 3098 3098 3097 3096 3095 3095 3094 3093 3092 3091 3090 3089 3088
3077 3077 3076 3075 3075 3075 3074 3074 3074 3074 3074 3074 3073 3073 3073 3073 3073 3074 3073 3073 3072 3071 3071 3072 3072 3072 3073 3073 3074 3074 3075 3075 3076 3076 3076 3077 3078 3079 3080 3080 3081 3081 3082 3083 3083 3084 3085 3086 3087 3088 3089 3090 3090 3091 3092 3093 3093 3094 3094 3094 3094 3095 3095 3095 3095 3096 3096 3096 3096 3096 3096 3096 3095 3095 3094 3094 3093 3092 3092 3091 3090 3089 3088 3086 3085
3077 3077 3076 3076 3075 3074 3073 3073 3073 3072 3072 3072 3072 3072 3072 3072 3073 3073 3073 3073 3072 3072 3071 3071 3071 3071 3072 3072 3073 3073 3074 3074 3075 3075 3076 3077 3077 3078 3079 3079 3080 3080 3081 3081 3082 3083 3084 3085 3086 3087 3088 3088 3089 3090 3090 3091 3091 3092 3092 3092 3093 3093 3093 3094 3094 3094 3094 3094 3094 3094 3094 3094 3093 3093 3092 3091 3091 3090 3090 3089 3088 3086 3085 3083 3082
3077 3077 3077 3076 3076 3075 3074 3073 3073 3072 3072 3072 3072 3072 3072 3072 3072 3072 3072 3072 3072 3072 3071 3071 3070 3070 3070 3071 3071 3072 3072 3073 3074 3074 3075 3075 3076 3077 3077 3078 3079 3079 3080 3080 3081 3082 3083 3084 3085 3086 3086 3087 3088 3088 3089 3089 3090 3090 3090 3091 3091 3092 3092 3092 3092 3092 3092 3092 3092 3092 3092 3091 3091 3090 3090 3089 3089 3088 3087 3086 3085 3083 3082 3081 3079
3077 3077 3077 3076 3076 3076 3075 3074 3073 3073 3072 3072 3072 3071 3071 3071 3071 3071 3071 3071 3071 3071 3071 3071 3070 3070 3070 3070 3070 3071 3071 3072 3073 3073 3074 3074 3075 3075 3076 3077 3077 3078 3078 3079 3080 3081 3082 3083 3084 3085 3085 3086 3086 3087 3087 3088 3088 3088 3089 3089 3089 3090 3090 3090 3090 3090 3090 3090 3090 3090 3089 3088 3088 3088 3088 3087 3087 3086 3085 3084 3082 3081 3080 3078 3077
3078 3077 3077 3076 3076 3076 3075 3075 3074 3074 3073 3073 3072 3072 3072 3071 3071 3071 3071 3070 3070 3070 3070 3070 3070 3070 3070 3070 3070 3071 3071 3072 3073 3073 3074 3074 3074 3075 3075 3076 3076 3077 3078 3078 3079 3080 3081 3082 3083 3083 3084 3084 3085 3085 3086 3086 3086 3086 3087 3087 3088 3088 3088 3088 3088 3088 3088 3088 3087 3087 3087 3086 3086 3086 3086 3085 3085 3084 3082 3081 3080 3079 3077 3076 3075
3079 3078 3078 3077 3076 3076 3076 3075 3075 3074 3074 3073 3073 3073 3072 3072 3072 3071 3071 3071 3070 3070 3070 3070 3070 3070 3071 3071 3071 3071 3072 3072 3073 3074 3074 3075 3075 3075 3076 3076 3076 3077 3078 3078 3079 3080 3080 3081 3081 3082 3082 3083 3083 3083 3084 3084 3084 3085 3085 3086 3086 3086 3086 3086 3086 3086 3086 3086 3085 3085 3085 3085 3085 3085 3084 3083 3083 3081 3080 3079 3078 3076 3075 3075 3074
3080 3079 3079 3078 3077 3076 3076 3075 3075 3075 3074 3074 3073 3073 3073 3072 3072 3072 3072 3071 3071 3071 3071 3071 3071 3071 3071 3071 3072 3072 3072 3073 3073 3074 3074 3074 3075 3075 3075 3075 3076 3077 3077 3078 3078 3079 3079 3080 3080 3080 3080 3081 3081 3081 3082 3082 3083 3083 3084 3084 3084 3084 3085 3085 3085 3084 3084 3083 3083 3083 3084 3084 3083 3083 3082 3081 3080 3079 3078 3077 3076 3075 3074 3073 3072
3081 3080 3080 3079 3078 3077 3077 3076 3076 3075 3075 3074 3074 3073 3073 3073 3072 3072 3072 3072 3071 3071 3071 3071 3071 3071 3071 3071 3071 3072 3072 3072 3073 3073 3073 3073 3074 3074 3074 3074 3074 3075 3076 3076 3077 3077 3078 3078 3078 3079 3079 3079 3080 3080 3080 3081 3082 3082 3082 3083 3083 3083 3083 3083 3083 3082 3082 3082 3082 3082 3082 3082 3082 3081 3080 3079 3078 3077 3076 3075 3074 3073 3072 3071 3071
3082 3082 3081 3080 3079 3078 3078 3077 3077 3076 3075 3075 3074 3074 3074 3073 3073 3073 3072 3072 3071 3071 3071 3071 3071 3071 3071 3071 3071 3071 3071 3071 3071 3072 3072 3072 3072 3072 3073 3073 3073 3074 3074 3075 3075 3076 3076 3077 3077 3077 3078 3078 3079 3079 3079 3080 3080 3081 3081 3082 3082 3082 3082 3081 3081 3080 3080 3081 3081 3081 3081 3081 3080 3079 3078 3077 3076 3075 3075 3074 3073 3072 3071 3070 3070
3084 3083 3082 3081 3081 3080 3079 3078 3078 3077 3076 3076 3075 3074 3074 3074 3073 3073 3072 3072 3071 3071 3071 3071 3071 3070 3070 3070 3070 3070 3070 3070 3070 3070 3070 3071 3071 3071 3072 3072 3072 3073 3073 3074 3074 3075 3075 3076 3076 3076 3077 3077 3078 3078 3078 3079 3079 3080 3080 3081 3081 3080 3080 3079 3079 3079 3080 3080 3080 3080 3080 3079 3078 3078 3077 3076 3075 3074 3073 3072 3071 3071 3070 3069 3069
3085 3084 3084 3083 3082 3081 3080 3079 3079 3078 3077 3076 3076 3075 3074 3074 3073 3073 3073 3072 3072 3071 3071 3070 3070 3070 3069 3069 3069 3069 3069 3069 3069 3069 3069 3069 3070 3070 3070 3071 3071 3072 3072 3073 3073 3073 3074 3074 3075 3075 3076 3076 3076 3077 3077 3078 3078 3079 3079 3079 3079 3079 3078 3078 3078 3079 3079 3079 3079 3079 3078 3078 3077 3076 3076 3075 3074 3073 3072 3071 3070 3070 3069 3069 3068
3086 3085 3085 3084 3083 3082 3081 3081 3080 3079 3078 3077 3077 3076 3075 3074 3074 3073 3073 3072 3072 3071 3071 3070 3070 3069 3068 3068 3068 3068 3068 3068 3068 3068 3068 3068 3068 3069 3069 3070 3070 3070 3071 3071 3071 3072 3073 3073 3074 3074 3075 3075 3076 3076 3077 3077 3078 3078 3078 3078 3077 3077 3077 3077 3078 3078 3078 3078 3078 3077 3077 3077 3076 3075 3075 3074 3073 3072 3071 3070 3070 3069 3069 3068 3067
3087 3086 3086 3085 3084 3084 3083 3082 3081 3080 3079 3079 3078 3077 3076 3076 3075 3074 3073 3073 3072 3071 3071 3070 3069 3068 3068 3067 3067 3067 3067 3067 3066 3066 3066 3067 3067 3067 3068 3068 3069 3069 3069 3070 3070 3071 3071 3072 3073 3073 3074 3075 3075 3075 3076 3076 3076 3076 3076 3076 3076 3076 3077 3077 3077 3077 3077 3077 3077 3077 3076 3076 3075 3074 3073 3073 3072 3071 3071 3070 3069 3069 3068 3067 3066
3088 3087 3086 3085 3085 3084 3083 3083 3082 3081 3080 3080 3079 3078 3077 3077 3076 3075 3074 3073 3072 3071 3071 3070 3069 3068 3067 3066 3066 3065 3065 3065 3065 3065 3065 3065 3065 3066 3066 3067 3067 3068 3068 3068 3069 3069 3070 3071 3072 3072 3073 3074 3074 3075 3075 3075 3075 3075 3075 3075 3075 3076 3076 3077 3077 3077 3077 3076 3076 3076 3075 3075 3074 3073 3072 3072 3071 3071 3070 3069 3069 3068 3067 3066 3065
3088 3088 3087 3086 3085 3084 3084 3083 3082 3082 3081 3080 3080 3079 3078 3077 3076 3076 3075 3074 3073 3072 3071 3070 3069 3068 3067 3066 3066 3065 3065 3064 3064 3064 3064 3064 3065 3065 3065 3065 3066 3067 3067 3067 3067 3068 3069 3070 3071 3071 3072 3073 3073 3074 3074 3074 3074 3074 3074 3075 3075 3075 3076 3076 3076 3076 3076 3076 3075 3075 3074 3073 3072 3072 3071 3071 3071 3070 3069 3069 3068 3067 3066 3065 3064
3089 3088 3087 3086 3085 3085 3084 3083 3082 3082 3081 3080 3080 3079 3079 3078 3077 3076 3075 3074 3073 3072 3071 3070 3069 3069 3068 3067 3066 3065 3065 3064 3064 3064 3064 3064 3064 3064 3064 3065 3065 3066 3066 3066 3066 3067 3068 3069 3070 3070 3071 3072 3072 3073 3073 3073 3073 3074 3074 3074 3075 3075 3075 3075 3075 3075 3075 3074 3074 3074 3073 3072 3072 3071 3071 3070 3070 3069 3069 3068 3068 3067 3066 3064 3063
3089 3089 3088 3087 3086 3085 3084 3083 3082 3082 3081 3080 3079 3079 3078 3078 3077 3077 3076 3075 3074 3073 3072 3071 3070 3069 3068 3067 3066 3065 3065 3064 3064 3064 3063 3063 3063 3063 3063 3063 3064 3064 3065 3065 3066 3066 3067 3068 3069 3069 3070 3071 3071 3072 3072 3072 3073 3073 3073 3074 3074 3074 3074 3074 3074 3074 3074 3073 3073 3072 3072 3072 3071 3071 3070 3070 3069 3069 3068 3068 3067 3066 3065 3063 3062
3089 3089 3088 3087 3086 3085 3084 3084 3083 3082 3081 3080 3079 3079 3078 3077 3077 3076 3076 3075 3074 3073 3072 3072 3071 3070 3069 3068 3067 3066 3065 3065 3064 3064 3063 3063 3063 3063 3063 3062 3063 3063 3064 3064 3065 3065 3066 3067 3067 3068 3069 3069 3070 3070 3071 3071 3072 3072 3072 3073 3073 3073 3074 3074 3073 3073 3073 3072 3072 3072 3071 3071 3071 3070 3070 3069 3069 3068 3068 3067 3066 3065 3064 3063 3061
3089 3089 3088 3087 3086 3085 3085 3084 3083 3082 3081 3080 3079 3078 3078 3077 3076 3076 3075 3074 3074 3073 3072 3072 3071 3070 3069 3068 3067 3066 3065 3065 3064 3064 3063 3062 3062 3062 3062 3062 3061 3062 3062 3063 3063 3064 3065 3065 3066 3067 3067 3068 3069 3069 3070 3070 3071 3071 3071 3072 3072 3072 3072 3072 3072 3072 3072 3072 3071 3071 3071 3070 3070 3070 3069 3069 3068 3068 3067 3066 3065 3064 3063 3062 3060
3089 3088 3088 3087 3086 3085 3084 3083 3083 3082 3081 3080 3079 3078 3077 3077 3076 3075 3074 3074 3073 3072 3072 3071 3070 3070 3069 3068 3067 3067 3066 3065 3064 3063 3063 3062 3061 3061 3060 3060 3060 3060 3061 3061 3062 3062 3063 3064 3064 3065 3066 3067 3067 3068 3068 3069 3069 3070 3070 3071 3071 3071 3071 3071 3071 3071 3071 3071 3071 3070 3070 3070 3069 3069 3069 3068 3068 3067 3066 3066 3064 3063 3062 3061 3060
3089 3088 3087 3086 3086 3085 3084 3083 3082 3081 3081 3080 3079 3078 3077 3076 3075 3075 3074 3073 3072 3071 3071 3070 3070 3069 3068 3068 3067 3066 3066 3065 3064 3063 3062 3061 3061 3060 3059 3059 3059 3059 3059 3060 3060 3061 3061 3062 3063 3063 3064 3065 3065 3066 3067 3067 3068 3068 3069 3069 3070 3070 3070 3070 3070 3070 3070 3070 3070 3069 3069 3069 3068 3068 3068 3068 3067 3066 3066 3065 3064 3063 3061 3060 3059